User: anonymous   Login
Location: Cheyres
(46.8153°N, 6.7877°E)
Time: 19:45:30
(UTC+00:00)
Language:

PicSat - Orbit

View from above orbital plane
View from above orbital plane
View from above satellite
View from above satellite

Ground track
Ground track

The orbit data is extracted from the following two-line orbital elements,

1 43131U 18004W   22177.47037981  .00020619  00000-0  57704-3 0  9997
2 43131  97.3760 256.7708 0004557 320.8913  39.2001 15.36667240247961
Epoch (UTC): 26 June 2022 11:17:20
Eccentricity: 0.0004557
inclination: 97.3760°
perigee height: 453 km
apogee height: 459 km
right ascension of ascending node: 256.7708°
argument of perigee: 320.8913°
revolutions per day: 15.36667240
mean anomaly at epoch: 39.2001°
orbit number at epoch: 24796

The dashed part of the orbit path shows where the satellite is in the earth's shadow,  

DLR